Starlink 3189

operational
NORAD ID: 51464 Int'l Des: 2022-010 Owner: SPXS Country: US Constellation: starlink
LEOCIRCULAR

Über Starlink 3189

Beschreibung wird geladen...

Live-Position

3D-Globus wird geladen...

Nächste Überflüge

Höhenverlauf

Altitude vs Time

uPlot chart will show altitude changes over time

Zweizeiliger Elementsatz

1 51464U 22010J 25353.07844358 -.00000210 00000-0 49129-5 0 9996
2 51464 53.2180 280.9963 0001665 98.0311 262.0871 15.08836058215152
Epoch: 19. Dez. 2025 • Age: 15 hours

Aktueller Status

Höhe 539.6 km
Geschwindigkeit 7.60 km/s
Subsatellitenpunkt 19.92°N, 100.91°E
Startdatum 3. Feb. 2022
Alter 3.8 years
Typ internet

Technische Details

Klassifizierung Payload
Masse 297.00 kg
Trockenmasse 275.00 kg
Gesamtmasse 297.00 kg
Länge 0.20 m
Durchmesser 2.80 m
Spannweite 9.00 m
Form Box + pan
Hersteller SPXS
Bus-Typ Starlink
Phasenstatus In Orbit
Besitzer/Staat SPXS/US

Große Konstellationen

Loading constellations...